Regional Weather Roundup
Issued by NWS

Home | Current Version | Previous Version | Text Only | Print | Product List | Glossary Off
Versions: 1 2 3 4 5 6 7 8 9 10 11 12 13 14 15 16 17 18 19 20 21 22 23 24 25 26 27 28 29 30 31 32 33 34 35 36 37 38 39 40 41 42 43 44 45 46 47 48 49 50

000
ASUS44 KMEG 181300
RWRTN
TENNESSEE HOURLY STATE WEATHER ROUNDUP
NATIONAL WEATHER SERVICE MEMPHIS TN
800 AM CDT FRI APR 18 2014

TNZ002-004-019-021-049-052-054-088>092-181400-
WEST TENNESSEE

CITY           SKY/WX    TMP DP  RH WIND       PRES   REMARKS
MEMPHIS INTL   PTSUNNY   59  47  64 CALM      30.24R
NWS MEMPHIS      N/A     56 N/A N/A MISG        N/A
JACKSON        MOSUNNY   56  49  77 CALM      30.25S
DYERSBURG      MOSUNNY   55  39  54 NE5       30.27R
UNION CITY     SUNNY     52  46  82 N3        30.26R
LEXINGTON      SUNNY     54  46  76 CALM      30.25F
$$

TNZ008-025-027-028-033-062-065-066-181400-
NORTH MIDDLE TENNESSEE

CITY           SKY/WX    TMP DP  RH WIND       PRES   REMARKS
NASHVILLE      CLOUDY    56  45  66 CALM      30.31R
CLARKSVILLE    PTSUNNY   52  44  74 SE6       30.29R
COOKEVILLE     SUNNY     52  46  82 CALM      30.31R
CROSSVILLE     CLOUDY    51  40  65 CALM      30.33R
$$

TNZ061-075-076-078-094-096-097-181400-
SOUTH MIDDLE TENNESSEE

CITY           SKY/WX    TMP DP  RH WIND       PRES   REMARKS
TULLAHOMA      MOSUNNY   55  36  47 CALM      30.30S
WINCHESTER     CLOUDY    55  36  47 SE12      30.30S
MCMINNVILLE    PTSUNNY   54  46  76 CALM      30.31R
COLUMBIA       CLOUDY    54  50  87 NE3       30.27F
$$

TNZ017-018-042-046-047-181400-
NORTHEAST TENNESSEE

CITY           SKY/WX    TMP DP  RH WIND       PRES   REMARKS
TRI CITIES     CLOUDY    47  28  47 E3        30.36S
ELIZABETHTON   SUNNY     46  28  49 CALM      30.36S
$$

TNZ012-013-036-069-073-074-181400-
CENTRAL EAST TENNESSEE

CITY           SKY/WX    TMP DP  RH WIND       PRES   REMARKS
KNOXVILLE      CLOUDY    51  35  54 CALM      30.34R
OAK RIDGE      CLOUDY    49  41  74 E3        30.35R
$$

TNZ083-085-099-181400-
SOUTHEAST TENNESSEE

CITY           SKY/WX    TMP DP  RH WIND       PRES   REMARKS
CHATTANOOGA    CLOUDY    54  45  71 CALM      30.33R
$$

SKY/WX REPORTED AS FAIR MEANS FEW OR NO CLOUDS BELOW
12 THOUSAND FEET.




USA.gov is the U.S. government's official web portal to all federal, state and local government web resources and services.